Location: Buckhorn Peak
(37.6641°N, 120.1241°W)
Time: 23:49:56
(UTC+00:00)

Vanguard 1 Rocket - Pass Details

Date: 07 November 2024
Orbit: 650 x 4218 km, 34.3° (Epoch: 06 December)

Event Time Altitude Azimuth Distance (km) Brightness Sun altitude
Rises 01:55:37 0° 277° (W) 5,794 13.1 -12.1°
Reaches altitude 10° 02:00:17 10° 274° (W) 4,202 12.1 -13.0°
Maximum altitude 02:09:50 55° 200° (SSW) 1,329 8.4 -14.9°
Enters shadow 02:14:42 13° 125° (SE) 2,233 9.0 -15.9°
